sat.trackr.live / text

‹ back to catalog

STARLINK-30791

NORAD 58177 · 2023-167C

PAYLOAD ACTIVE UNKNOWN

§ Identity

Operator
Country
US
Launch date
2023-10-30
Launch site
AFETR
Launch vehicle
Mass (kg)
RCS (m²)

Purposes: comms

External: N2YO · Heavens-Above · Gunter

§ Orbital elements

Epoch: 2026-09-20T21:44:46.688352Z

Period
94.27 min
Inclination
43.0023°
Eccentricity
0.0000993
Mean motion
15.27578503 rev/d
Perigee alt
482.4 km
Apogee alt
483.7 km
Semi-major
6,861.2 km
B*
1.2838e-7
RAAN
120.6893°
Arg perigee
272.5496°
Mean anomaly
87.5242°
Rev number
16,084

§ Raw data

STARLINK-307911 58177U 23167C   26263.90609593 -.00000258  00000+0  12838-6 0  99902 58177  43.0023 120.6893 0000993 272.5496  87.5242 15.27578503160847

JSON: /api/v1/satellites/58177 · /tle

For live sub-satellite position, see the globe view (requires WebGL).

§ Visibility from observer

Set your observer location to see the next 7 days of passes ≥ 10°. The values pass through the URL so the page stays shareable.

No JS? Fill the form by hand. The geolocation button needs JavaScript.